Regional Weather Roundup
Issued by NWS New Orleans/Baton Rouge, LA

Home | Current Version | Previous Version | Text Only | Print | Product List | Glossary On
Versions: 1 2 3 4 5 6 7 8 9 10 11 12 13 14 15 16 17 18 19 20 21 22 23 24 25 26 27 28 29 30 31 32 33 34 35 36 37 38 39 40 41 42 43 44 45 46 47 48 49 50
284
ASUS44 KLIX 261513
RWRLIX
NEW ORLEANS REGIONAL WEATHER ROUNDUP
NATIONAL WEATHER SERVICE NEW ORLEANS LA
900 AM CST SUN FEB 26 2017

NOTE: "FAIR" INDICATES FEW OR NO CLOUDS BELOW 12,000 FEET WITH NO
      SIGNIFICANT WEATHER AND/OR OBSTRUCTIONS TO VISIBILITY.
      SKY/WX - SKY CONDITION AND SIGNIFICANT WEATHER.
      TMP - AIR TEMPERATURE.     DP    - DEWPOINT TEMPERATURE.
      RH  - RELATIVE HUMIDITY.   PRES  - PRESSURE.
      HI  - HEAT INDEX.          WCI   - WIND CHILL INDEX.

*  THESE STATIONS ARE NOT NWS OR FAA STATIONS AND ARE NOT UNDER
   NWS QUALITY CONTROL.

LAZ038-040-048-061>063-065>067-069-261600-
SOUTHEAST LOUISIANA

CITY           SKY/WX    TMP DP  RH WIND       PRES   REMARKS
N.O. AUDUBON   NOT AVBL
N.O. INTL ARPT SUNNY     55  40  56 E14       30.18R
N.O. LAKEFRONT SUNNY     54  42  64 E15       30.19R
N.O. DOWNTOWN*   N/A     54  42  64 VRB5      30.19R
RESERVE*         N/A     57  40  53 E15G22    30.19R
SLIDELL        SUNNY     51  29  42 E12       30.20R
BATON ROUGE    SUNNY     50  30  46 E15       30.18R
BOOTHVILLE     SUNNY     62  50  64 E13       30.18R
BELLE CHASSE   SUNNY     59  46  62 E15       30.17R
BOGALUSA*        N/A     49  29  46 E10       30.23R
GALLIANO*      SUNNY     63  45  52 E9G22     30.16S
NEW ROADS*       N/A     48  31  50 E10G18    30.18R
GONZALES*        N/A     53  37  53 E9        30.17R
HAMMOND*       SUNNY     50  28  43 E7        30.20S
HOUMA*         SUNNY     55  46  71 NE10      30.16R
PORT FOURCHON* NOT AVBL

$$

MSZ070-080>082-261600-
SOUTHERN MISSISSIPPI

CITY           SKY/WX    TMP DP  RH WIND       PRES   REMARKS
MCCOMB         SUNNY     47  25  42 E9        30.19S
GULFPORT       SUNNY     51  30  44 E10G25    30.21R
BILOXI         SUNNY     52  30  43 E13       30.21R
PASCAGOULA     SUNNY     52  29  41 NE8       30.22R
STENNIS ARPT*  SUNNY     50  21  32 MISG      30.22R

$$

COASTAL OBSERVATIONS
LAKE AND NEARSHORE STATIONS

STATION/POSITION TIME  TEMP    WIND        PRES    WAVE
                       AIR SEA DIR/SP/G            HT/PER
                 (UTC) (F)     (DEG/KT/KT) (MB)    (FT/S)
PASCAGOULA       1448   53      70/ 15/ 17 1022.6
WAVELAND YACHT   1442   49 63   90/ 12/ 15 1022.4
GRAND ISLE       1448   63 67  100/ 10/ 17 1021.3
SOUTHWEST PASS   1448           80/ 19/ 24   N/A
NEW CANAL        1448   53 63   70/ 14/ 17 1021.1
SHELL BEACH      1442   57 63   70/ 18/ 21 1021.9

OFFSHORE STATIONS

STATION/POSITION TIME  TEMP    WIND        PRES    WAVE
                       AIR SEA DIR/SP/G            HT/PER
                 (UTC) (F)     (DEG/KT/KT) (MB)    (FT/S)

$$





USA.gov is the U.S. government's official web portal to all federal, state and local government web resources and services.